OV1-10 R/B, 2621

Orbit data source: Space-Track

OV1-10 R/B, 2621 is space debris in LEO originally from a launch on Sun, 11 Dec 1966 UTC launched from the Air Force Western Test Range (AFWTR). Debris objects in space refer to the collection of defunct objects orbiting the Earth. Examples of debris include non-operational satellites, rocket bodies, and fragments generated from explosions, collisions, or faulty payload assembly.

Loading next visibility...
Identifier
2621, 1966-111C
Orbit
LEO
Country
Flag of USUS
Related business
Manufacturer
ABL
Mission
Spacecraft
Bus & Motor
ALTAIR, Unknown motor
Mass
125 kg wet, 125 kg dry
Launch date (UTC)
1966-12-11 (59 years ago)
Launch vehicle
Unknown
Launch site
Air Force Western Test Range (AFWTR)
Object type
Payload
Rocket body
Debris
Shape & HBR
Unknown
Radar Cross Section
Large (>1 m²)

Expand to show TLE details & history
Last TLE update: 14 hours ago

TLE from 14 hours ago
0 OV1-10 R/B
1 02621U 66111C   25310.96322052  .00001540  00000-0  17571-3 0  9990
2 02621  93.3972 110.1327 0058048 138.2443 222.3234 14.85086258141372
Epoch: 2025-11-06T23:07Z
TLE epoch observation values (Epoch: 2025-11-06T23:07:02.252Z)
Latitude
0.00002°
Longitude
76.95931°
Altitude
646.56 km
Speed
7.518 km/s
True Right ascension
07h 20m 31s
True Declination
0° 00' 00"
Sunlit
Object was in daylight at epoch
Visualization orbit readout
Latitude
Unknown
Longitude
Unknown
Altitude
Unknown
Speed
Unknown
Apparent Right ascension
Unknown
Apparent Declination
Unknown
Sunlit
N/A
Visualization observer readout
Local Sidereal Time
09:24:48
Azimuth
Unknown
Elevation
Unknown
Doppler factor
Unknown
Orbital elements
Apogee altitude
650.77 km
Perigee altitude
569.638 km
Semi-major axis
6,988.341 km
Eccentricity
0.0058
Inclination
93.3972°
RAAN
110.1327°
Arg. of periapsis
138.2443°
True anomaly
221.87792°
Mean anomaly
222.3234°
Eccentric anomaly
222.10042°
Mean motion
3.7152 °/min
Orbital period
96.9 mins
BSTAR
0.00017571
Loading maneuver chart data...
Computing Atmospheric mass density...
Loading historical data...
Loading historical data...
Loading historical data...
Loading historical data...
Loading historical data...
Loading historical data...
Loading historical data...
Other satellites on launch #111 in the year 1966 (1966-12-11 UTC)

Documentation

Showing up to 5 results
|